GW5210 Weather Reports


time (UTC)temp
C
wind
direction
speed
KPH
gust
KPH
rain 1hr
cm
rain 24hr
cm
rain mn
cm
humidity
%
barometer
mb
20260504214346 20 312 1.6 9.7 0.00 0.00 0.00 52 1011.4
20260504213411 19 35 1.6 12.9 0.00 0.00 0.00 53 1011.5
20260504212344 20 307 1.6 8.0 0.00 0.00 0.00 51 1011.5
20260504211349 20 300 1.6 9.7 0.00 0.00 0.00 49 1011.5
20260504210343 20 233 1.6 11.3 0.00 0.00 0.00 49 1011.5
20260504205347 20 243 3.2 6.4 0.00 0.00 0.00 48 1011.5
20260504204411 20 309 1.6 6.4 0.00 0.00 0.00 43 1011.4
20260504203345 20 302 4.8 8.0 0.00 0.00 0.00 43 1011.5
20260504202350 20 25 3.2 9.7 0.00 0.00 0.00 45 1011.5
20260504201344 21 307 1.6 4.8 0.00 0.00 0.00 46 1011.5
20260504200347 21 330 1.6 6.4 0.00 0.00 0.00 46 1011.5
20260504195341 22 283 1.6 6.4 0.00 0.00 0.00 45 1011.5
20260504194345 22 349 1.6 6.4 0.00 0.00 0.00 43 1011.4
20260504193410 22 267 3.2 4.8 0.00 0.00 0.00 40 1011.4
20260504192344 23 295 3.2 6.4 0.00 0.00 0.00 39 1011.4
20260504191409 24 286 1.6 6.4 0.00 0.00 0.00 40 1011.2
20260504190343 23 349 1.6 6.4 0.00 0.00 0.00 40 1011.2
20260504185346 23 354 3.2 6.4 0.00 0.00 0.00 38 1011.2
20260504184351 23 259 1.6 9.7 0.00 0.00 0.00 40 1011.2
20260504183345 23 20 3.2 6.4 0.00 0.00 0.00 41 1011.3
20260504182349 23 276 1.6 4.8 0.00 0.00 0.00 42 1011.5
20260504181344 22 325 1.6 4.8 0.00 0.00 0.00 41 1011.5
20260504180348 22 298 3.2 6.4 0.00 0.00 0.00 40 1011.5
20260504175342 22 331 1.6 4.8 0.00 0.00 0.00 40 1011.5
20260504174346 22 303 0.0 3.2 0.00 0.00 0.00 42 1011.5
20260504173451 22 9 1.6 6.4 0.00 0.00 0.00 42 1011.5
20260504172405 22 295 1.6 6.4 0.00 0.00 0.00 41 1011.5
20260504171350 22 13 1.6 4.8 0.00 0.00 0.00 43 1011.6
20260504170343 22 315 1.6 4.8 0.00 0.00 0.00 42 1011.6
20260504160350 19 310 0.0 3.2 0.00 0.00 0.00 49 1011.5
20260504150345 13 90 1.6 3.2 0.00 0.00 0.00 70 1011.0
20260504140409 10 0.0 1.6 0.00 0.00 0.00 74 1010.6
20260504130344 9 205 1.6 3.2 0.00 0.00 0.00 74 1010.3
20260504110343 10 0.0 1.6 0.00 0.00 0.00 63 1010.2
20260504100348 12 75 1.6 3.2 0.00 0.00 0.00 54 1010.0
20260504081342 13 166 4.8 8.0 0.00 0.00 0.00 55 1009.7
20260504080346 13 159 3.2 8.0 0.00 0.00 0.00 56 1009.7
20260504070350 12 222 3.2 4.8 0.00 0.00 0.00 66 1010.1
20260504050341 15 0.0 0.0 0.00 0.00 0.00 55 1010.4
20260504045426 15 170 0.0 1.6 0.00 0.00 0.00 55 1010.4
20260504044350 16 0.0 1.6 0.00 0.00 0.00 54 1010.4
20260504043344 16 180 0.0 3.2 0.00 0.00 0.00 52 1010.3
20260504042349 16 279 1.6 4.8 0.00 0.00 0.00 54 1010.4
20260504041403 17 242 1.6 1.6 0.00 0.00 0.00 55 1010.3
20260504040408 17 236 0.0 1.6 0.00 0.00 0.00 50 1010.3
20260504035342 17 135 0.0 1.6 0.00 0.00 0.00 46 1010.2
20260504034347 18 0.0 0.0 0.00 0.00 0.00 44 1010.1
20260504033351 18 0.0 0.0 0.00 0.00 0.00 42 1010.1
20260504032345 18 0.0 0.0 0.00 0.00 0.00 40 1010.1
20260504031430 19 0.0 0.0 0.00 0.00 0.00 40 1010.1
20260504030344 20 0.0 0.0 0.00 0.00 0.00 40 1010.1
20260504025348 20 0.0 0.0 0.00 0.00 0.00 40 1010.1
20260504024342 20 0.0 1.6 0.00 0.00 0.00 37 1010.2
20260504023406 21 180 1.6 1.6 0.00 0.00 0.00 35 1010.3
20260504022411 21 0.0 0.0 0.00 0.00 0.00 35 1010.5
20260504021345 21 0.0 1.6 0.00 0.00 0.00 32 1010.5
20260504020349 21 0.0 0.0 0.00 0.00 0.00 31 1010.6
20260504015343 21 0.0 3.2 0.00 0.00 0.00 31 1010.6
20260504014348 22 247 0.0 1.6 0.00 0.00 0.00 31 1010.8
20260504013341 22 174 0.0 1.6 0.00 0.00 0.00 31 1010.8
20260504012346 22 118 1.6 3.2 0.00 0.00 0.00 32 1011.0
20260504011350 22 248 1.6 3.2 0.00 0.00 0.00 29 1011.1
20260504010344 23 288 3.2 4.8 0.00 0.00 0.00 27 1011.2
20260504005348 23 219 1.6 3.2 0.00 0.00 0.00 29 1011.3
20260504004342 23 175 1.6 4.8 0.00 0.00 0.00 27 1011.5
20260504003347 23 107 0.0 4.8 0.00 0.00 0.00 27 1011.5
20260504002351 24 180 1.6 3.2 0.00 0.00 0.00 27 1011.5
20260504001345 24 299 1.6 3.2 0.00 0.00 0.00 26 1011.6
20260504000349 25 6 1.6 4.8 0.00 0.00 0.00 26 1011.6
20260503235343 25 251 1.6 3.2 0.00 0.00 0.00 26 1011.7
20260503234408 25 339 3.2 4.8 0.00 0.00 0.00 27 1011.9
20260503233342 25 293 0.0 4.8 0.00 0.00 0.00 29 1012.0
20260503232346 25 252 3.2 4.8 0.00 0.00 0.00 29 1012.1
20260503231411 25 234 3.2 4.8 0.00 0.00 0.00 29 1012.2
20260503230345 25 311 1.6 3.2 0.00 0.00 0.00 31 1012.3
20260503225350 25 215 1.6 3.2 0.00 0.00 0.00 35 1012.5
20260503224403 25 256 1.6 4.8 0.00 0.00 0.00 32 1012.6
20260503223348 25 300 0.0 4.8 0.00 0.00 0.00 32 1012.8
20260503222342 24 233 1.6 4.8 0.00 0.00 0.00 33 1013.0
20260503221346 24 269 1.6 4.8 0.00 0.00 0.00 33 1013.1
20260503220351 24 214 1.6 4.8 0.00 0.00 0.00 33 1013.3
20260503215344 24 258 1.6 3.2 0.00 0.00 0.00 34 1013.4